| time (UTC) | temp C | wind direction | speed KPH | gust KPH | rain 1hr cm | rain 24hr cm | rain mn cm | humidity % | barometer mb |
| 20260505124515 | 24 | 96 | 6.4 | 24.1 | 0.00 | 0.00 | 0.00 | 20 | 1008.0 |
| 20260505123315 | 24 | 50 | 12.9 | 14.5 | 0.00 | 0.00 | 0.00 | 21 | 1008.0 |
| 20260505122115 | 24 | 59 | 6.4 | 16.1 | 0.00 | 0.00 | 0.00 | 20 | 1008.0 |
| 20260505120915 | 23 | 145 | 3.2 | 12.9 | 0.00 | 0.00 | 0.00 | 17 | 1008.0 |
| 20260505115715 | 23 | 190 | 8.0 | 14.5 | 0.00 | 0.00 | 0.00 | 16 | 1008.0 |
| 20260505114515 | 24 | 178 | 14.5 | 14.5 | 0.00 | 0.00 | 0.00 | 15 | 1008.0 |
| 20260505113315 | 25 | 254 | 8.0 | 9.7 | 0.00 | 0.00 | 0.00 | 16 | 1008.0 |
| 20260505112115 | 24 | 263 | 4.8 | 9.7 | 0.00 | 0.00 | 0.00 | 18 | 1008.0 |
| 20260505110915 | 23 | 297 | 6.4 | 11.3 | 0.00 | 0.00 | 0.00 | 20 | 1009.0 |
| 20260505102116 | 22 | 161 | 3.2 | 12.9 | 0.00 | 0.00 | 0.00 | 21 | 1009.0 |
| 20260505100916 | 22 | 143 | 4.8 | 16.1 | 0.00 | 0.00 | 0.00 | 22 | 1009.0 |
| 20260505095715 | 21 | 273 | 9.7 | 17.7 | 0.00 | 0.00 | 0.00 | 25 | 1009.0 |
| 20260505094516 | 21 | 218 | 11.3 | 16.1 | 0.00 | 0.00 | 0.00 | 25 | 1009.0 |
| 20260505093316 | 21 | 218 | 8.0 | 20.9 | 0.00 | 0.00 | 0.00 | 26 | 1009.0 |
| 20260505092117 | 21 | 224 | 11.3 | 16.1 | 0.00 | 0.00 | 0.00 | 25 | 1009.0 |
| 20260505090915 | 21 | 259 | 3.2 | 17.7 | 0.00 | 0.00 | 0.00 | 29 | 1010.0 |
| 20260505085715 | 20 | 247 | 11.3 | 19.3 | 0.00 | 0.00 | 0.00 | 32 | 1010.0 |
| 20260505084515 | 20 | 249 | 12.9 | 19.3 | 0.00 | 0.00 | 0.00 | 34 | 1010.0 |
| 20260505083316 | 20 | 269 | 16.1 | 19.3 | 0.00 | 0.00 | 0.00 | 37 | 1010.0 |
| 20260505082115 | 20 | 285 | 6.4 | 14.5 | 0.00 | 0.00 | 0.00 | 38 | 1010.0 |
| 20260505080915 | 19 | 277 | 9.7 | 12.9 | 0.00 | 0.00 | 0.00 | 40 | 1010.0 |
| 20260505075716 | 18 | 258 | 11.3 | 14.5 | 0.00 | 0.00 | 0.00 | 41 | 1010.0 |
| 20260505074516 | 18 | 258 | 11.3 | 14.5 | 0.00 | 0.00 | 0.00 | 41 | 1010.0 |
| 20260505073314 | 17 | 249 | 11.3 | 14.5 | 0.00 | 0.00 | 0.00 | 46 | 1010.0 |
| 20260505072115 | 17 | 229 | 9.7 | 16.1 | 0.00 | 0.00 | 0.00 | 46 | 1010.0 |
| 20260505070914 | 17 | 260 | 12.9 | 17.7 | 0.00 | 0.00 | 0.00 | 47 | 1010.0 |
| 20260505065715 | 16 | 270 | 6.4 | 9.7 | 0.00 | 0.00 | 0.00 | 53 | 1010.0 |
| 20260505064515 | 16 | 270 | 6.4 | 9.7 | 0.00 | 0.00 | 0.00 | 53 | 1010.0 |
| 20260505063315 | 15 | 226 | 3.2 | 8.0 | 0.00 | 0.00 | 0.00 | 56 | 1010.0 |
| 20260505062115 | 14 | 242 | 6.4 | 9.7 | 0.00 | 0.00 | 0.00 | 59 | 1010.0 |
| 20260505060914 | 13 | 222 | 6.4 | 8.0 | 0.00 | 0.00 | 0.00 | 64 | 1010.0 |
| 20260505055715 | 12 | 237 | 6.4 | 9.7 | 0.00 | 0.00 | 0.00 | 65 | 1010.0 |
| 20260505054515 | 12 | 271 | 6.4 | 8.0 | 0.00 | 0.00 | 0.00 | 66 | 1010.0 |
| 20260505053315 | 11 | 252 | 4.8 | 6.4 | 0.00 | 0.00 | 0.00 | 67 | 1010.0 |
| 20260505052115 | 11 | 225 | 6.4 | 6.4 | 0.00 | 0.00 | 0.00 | 67 | 1010.0 |
| 20260505050915 | 11 | 248 | 4.8 | 9.7 | 0.00 | 0.00 | 0.00 | 64 | 1010.0 |
| 20260505040915 | 13 | 237 | 4.8 | 6.4 | 0.00 | 0.00 | 0.00 | 57 | 1011.0 |
| 20260505035715 | 13 | 263 | 6.4 | 9.7 | 0.00 | 0.00 | 0.00 | 57 | 1011.0 |
| 20260505034516 | 13 | 263 | 6.4 | 9.7 | 0.00 | 0.00 | 0.00 | 57 | 1011.0 |
| 20260505033316 | 14 | 238 | 6.4 | 9.7 | 0.00 | 0.00 | 0.00 | 54 | 1011.0 |
| 20260505032115 | 14 | 238 | 6.4 | 9.7 | 0.00 | 0.00 | 0.00 | 54 | 1011.0 |
| 20260505030915 | 14 | 244 | 8.0 | 12.9 | 0.00 | 0.00 | 0.00 | 54 | 1011.0 |
| 20260505025715 | 14 | 207 | 3.2 | 9.7 | 0.00 | 0.00 | 0.00 | 55 | 1011.0 |
| 20260505024515 | 14 | 240 | 8.0 | 12.9 | 0.00 | 0.00 | 0.00 | 55 | 1011.0 |
| 20260505023315 | 14 | 255 | 11.3 | 12.9 | 0.00 | 0.00 | 0.00 | 54 | 1011.0 |
| 20260505022115 | 15 | 243 | 11.3 | 14.5 | 0.00 | 0.00 | 0.00 | 53 | 1011.0 |
| 20260505020915 | 15 | 251 | 11.3 | 11.3 | 0.00 | 0.00 | 0.00 | 51 | 1011.0 |
| 20260505015715 | 15 | 247 | 6.4 | 8.0 | 0.00 | 0.00 | 0.00 | 52 | 1011.0 |
| 20260505014515 | 15 | 246 | 4.8 | 12.9 | 0.00 | 0.00 | 0.00 | 53 | 1011.0 |
| 20260505013315 | 15 | 241 | 9.7 | 17.7 | 0.00 | 0.00 | 0.00 | 52 | 1011.0 |
| 20260505012115 | 15 | 258 | 4.8 | 12.9 | 0.00 | 0.00 | 0.00 | 52 | 1011.0 |
| 20260505010915 | 15 | 291 | 3.2 | 11.3 | 0.00 | 0.00 | 0.00 | 53 | 1011.0 |
| 20260505005714 | 15 | 264 | 11.3 | 16.1 | 0.00 | 0.00 | 0.00 | 54 | 1012.0 |
| 20260505004514 | 15 | 264 | 11.3 | 16.1 | 0.00 | 0.00 | 0.00 | 54 | 1012.0 |
| 20260505003315 | 13 | 254 | 11.3 | 14.5 | 0.00 | 0.00 | 0.00 | 57 | 1012.0 |
| 20260505002115 | 13 | 274 | 8.0 | 11.3 | 0.00 | 0.00 | 0.00 | 57 | 1012.0 |
| 20260505000915 | 13 | 292 | 6.4 | 8.0 | 0.00 | 0.00 | 0.00 | 60 | 1012.0 |
| 20260504235715 | 13 | 240 | 6.4 | 9.7 | 0.00 | 0.00 | 0.00 | 60 | 1012.0 |
| 20260504234515 | 13 | 269 | 8.0 | 14.5 | 0.00 | 0.00 | 0.00 | 60 | 1012.0 |
| 20260504233315 | 14 | 248 | 11.3 | 11.3 | 0.00 | 0.00 | 0.00 | 56 | 1012.0 |
| 20260504232116 | 14 | 295 | 4.8 | 6.4 | 0.00 | 0.00 | 0.00 | 57 | 1012.0 |
| 20260504230915 | 15 | 74 | 3.2 | 8.0 | 0.00 | 0.00 | 0.00 | 55 | 1012.0 |
| 20260504225714 | 15 | 210 | 3.2 | 4.8 | 0.00 | 0.00 | 0.00 | 51 | 1012.0 |
| 20260504224515 | 15 | 84 | 3.2 | 4.8 | 0.00 | 0.00 | 0.00 | 51 | 1012.0 |
| 20260504223315 | 15 | 275 | 4.8 | 9.7 | 0.00 | 0.00 | 0.00 | 57 | 1012.0 |
| 20260504222114 | 15 | 275 | 4.8 | 9.7 | 0.00 | 0.00 | 0.00 | 57 | 1012.0 |
| 20260504220914 | 15 | 239 | 4.8 | 6.4 | 0.00 | 0.00 | 0.00 | 54 | 1013.0 |
| 20260504215715 | 16 | 284 | 8.0 | 8.0 | 0.00 | 0.00 | 0.00 | 51 | 1012.0 |
| 20260504214514 | 16 | 284 | 8.0 | 8.0 | 0.00 | 0.00 | 0.00 | 51 | 1012.0 |
| 20260504213314 | 16 | 87 | 4.8 | 6.4 | 0.00 | 0.00 | 0.00 | 45 | 1012.0 |
| 20260504212114 | 16 | 328 | 3.2 | 6.4 | 0.00 | 0.00 | 0.00 | 44 | 1012.0 |
| 20260504210915 | 17 | 304 | 6.4 | 9.7 | 0.00 | 0.00 | 0.00 | 45 | 1012.0 |
| 20260504205714 | 18 | 49 | 6.4 | 6.4 | 0.00 | 0.00 | 0.00 | 40 | 1012.0 |
| 20260504204514 | 18 | 49 | 6.4 | 6.4 | 0.00 | 0.00 | 0.00 | 40 | 1012.0 |
| 20260504203314 | 18 | 270 | 3.2 | 11.3 | 0.00 | 0.00 | 0.00 | 40 | 1012.0 |
| 20260504202114 | 18 | 252 | 11.3 | 11.3 | 0.00 | 0.00 | 0.00 | 37 | 1012.0 |
| 20260504200914 | 20 | 95 | 3.2 | 8.0 | 0.00 | 0.00 | 0.00 | 31 | 1012.0 |
| 20260504195716 | 20 | 360 | 11.3 | 12.9 | 0.00 | 0.00 | 0.00 | 30 | 1012.0 |
| 20260504194515 | 20 | 10 | 6.4 | 20.9 | 0.00 | 0.00 | 0.00 | 30 | 1012.0 |
| 20260504193314 | 20 | 32 | 12.9 | 20.9 | 0.00 | 0.00 | 0.00 | 31 | 1012.0 |
| 20260504192114 | 20 | 35 | 16.1 | 27.4 | 0.00 | 0.00 | 0.00 | 31 | 1012.0 |
| 20260504190914 | 20 | 267 | 22.5 | 27.4 | 0.00 | 0.00 | 0.00 | 37 | 1012.0 |
| 20260504185714 | 21 | 250 | 12.9 | 16.1 | 0.00 | 0.00 | 0.00 | 34 | 1012.0 |
| 20260504184514 | 21 | 250 | 12.9 | 16.1 | 0.00 | 0.00 | 0.00 | 34 | 1012.0 |
| 20260504183316 | 22 | 285 | 4.8 | 6.4 | 0.00 | 0.00 | 0.00 | 26 | 1012.0 |
| 20260504182116 | 22 | 19 | 4.8 | 6.4 | 0.00 | 0.00 | 0.00 | 26 | 1012.0 |
| 20260504180916 | 22 | 16 | 8.0 | 8.0 | 0.00 | 0.00 | 0.00 | 26 | 1011.0 |
| 20260504175716 | 23 | 28 | 4.8 | 8.0 | 0.00 | 0.00 | 0.00 | 25 | 1012.0 |
| 20260504174516 | 23 | 28 | 4.8 | 8.0 | 0.00 | 0.00 | 0.00 | 25 | 1012.0 |
| 20260504173316 | 23 | 71 | 6.4 | 11.3 | 0.00 | 0.00 | 0.00 | 27 | 1012.0 |
| 20260504172116 | 23 | 71 | 6.4 | 11.3 | 0.00 | 0.00 | 0.00 | 27 | 1012.0 |
| 20260504170916 | 23 | 64 | 8.0 | 19.3 | 0.00 | 0.00 | 0.00 | 25 | 1012.0 |
| 20260504150916 | 23 | 75 | 6.4 | 25.7 | 0.00 | 0.00 | 0.00 | 25 | 1012.0 |